User: anonymous   Login
Location: Batang Balui
(2.7000°N, 113.7833°E)
Time: 03:17:36
(UTC+00:00)
Language:

Max Valier Satellite - Orbit

View from above orbital plane
View from above orbital plane
View from above satellite
View from above satellite

Ground track
Ground track

The orbit data is extracted from the following two-line orbital elements,

1 42778U 17036P   23087.69721468  .00024689  00000-0  72751-3 0  9992
2 42778  97.1686 124.6041 0009459  45.9726 314.2296 15.34976316320361
Epoch (UTC): 28 March 2023 16:43:59
Eccentricity: 0.0009459
inclination: 97.1686°
perigee height: 454 km
apogee height: 467 km
right ascension of ascending node: 124.6041°
argument of perigee: 45.9726°
revolutions per day: 15.34976316
mean anomaly at epoch: 314.2296°
orbit number at epoch: 32036

The dashed part of the orbit path shows where the satellite is in the earth's shadow,  

DLR